Mackinac Island, MI

11:45 AM EDT on June 26, 2017 (GMT -0400)
Mackinac Island

Weather History for KMCD - January, 2013

Change the Weather History Date:

Sunday, January 20, 2013

  Actual Average Record
Temperature  
Mean Temperature 16 °F -  
Max Temperature 24 °F 21 °F 35 °F (1991)
Min Temperature 8 °F 9 °F -4 °F (2014)
Degree Days  
Heating Degree Days 49    
Moisture  
Dew Point 5 °F    
Average Humidity 72    
Maximum Humidity 86    
Minimum Humidity 61    
Precipitation  
Precipitation 0.00 in - - ()
Sea Level Pressure  
Sea Level Pressure 29.88 in    
Wind  
Wind Speed 18 mph (WNW)    
Max Wind Speed 28 mph    
Max Gust Speed 38 mph    
Visibility 9 miles    
Events Snow    
Averages and records for this station are not official NWS values.
T = Trace of Precipitation, MM = Missing Value Source: NWS Daily Summary

Daily Weather History Graph

Daily Weather History Graph

Search for Another Location

Airport or City:

Trip Planner

Search our weather history database for the weather conditions in past years. The results will help you decide how hot, cold, wet, or windy it might be!

Date:

Astronomy

Jan. 20, 2013 Rise Set
Actual Time 8:12 AM EST 5:27 PM EST
Civil Twilight 7:39 AM EST 6:00 PM EST
Nautical Twilight 7:02 AM EST 6:37 PM EST
Astronomical Twilight 6:27 AM EST 7:12 PM EST
Moon 12:29 PM EST (1/20) 2:42 AM EST (1/20)
Length of Visible Light 10h 20m
Length of Day
9h 15m
Waxing Gibbous, 66% of the Moon is Illuminated
Jan 20
Waxing Gibbous
Jan 26
Full
Feb 3
Last Quarter
Feb 10
New
Feb 17
First Quarter

Hourly Weather History & Observations

Time (EST) Temp. Windchill Dew Point Humidity Pressure Visibility Wind Dir Wind Speed Gust Speed Precip Events Conditions
12:15 AM 24.1 °F 8.7 °F 18.5 °F 79% 29.39 in 7.0 mi West 23.0 mph 34.5 mph N/A   Mostly Cloudy
12:35 AM 23.0 °F 6.9 °F 18.5 °F 83% 29.38 in 7.0 mi West 24.2 mph 36.8 mph N/A   Overcast
12:54 AM 23.4 °F 7.4 °F 19.4 °F 85% 29.38 in 10.0 mi West 24.2 mph 36.8 mph N/A   Overcast
1:15 AM 24.4 °F 8.5 °F 20.3 °F 84% 29.38 in 5.0 mi West 25.3 mph 38.0 mph N/A   Overcast
1:34 AM 24.6 °F 9.7 °F 20.8 °F 86% 29.39 in 7.0 mi NW 21.9 mph 29.9 mph N/A Snow Light Snow
1:54 AM 23.9 °F 9.1 °F 19.9 °F 85% 29.42 in 4.0 mi NW 20.7 mph 35.7 mph N/A Snow Light Snow
2:15 AM 22.1 °F 6.4 °F 16.5 °F 79% 29.46 in 5.0 mi WNW 21.9 mph 35.7 mph N/A Snow Light Snow
2:34 AM 19.4 °F 1.1 °F 13.1 °F 76% 29.50 in 5.0 mi NW 27.6 mph 35.7 mph N/A   Haze
2:54 AM 18.3 °F 1.0 °F 12.0 °F 76% 29.53 in 10.0 mi WNW 23.0 mph 35.7 mph N/A   Overcast
3:15 AM 17.4 °F 2.4 °F 11.8 °F 79% 29.56 in 10.0 mi WNW 16.1 mph 33.4 mph N/A   Overcast
3:34 AM 16.7 °F -1.1 °F 10.9 °F 78% 29.59 in 7.0 mi WNW 23.0 mph 33.4 mph N/A Snow Light Snow
3:55 AM 15.6 °F -0.9 °F 9.9 °F 78% 29.61 in 5.0 mi NW 18.4 mph 29.9 mph N/A Snow Light Snow
4:15 AM 14.7 °F -2.5 °F 8.8 °F 77% 29.63 in 7.0 mi NW 19.6 mph 32.2 mph N/A   Overcast
4:34 AM 13.8 °F -4.9 °F 7.2 °F 75% 29.66 in 7.0 mi NW 23.0 mph 35.7 mph N/A   Overcast
4:54 AM 12.6 °F -5.3 °F 5.7 °F 74% 29.68 in 7.0 mi NW 19.6 mph 38.0 mph N/A   Overcast
5:15 AM 12.2 °F -4.3 °F 6.8 °F 79% 29.71 in 7.0 mi NW 16.1 mph 31.1 mph N/A   Overcast
5:34 AM 11.5 °F -8.1 °F 5.9 °F 78% 29.74 in 7.0 mi NW 23.0 mph 31.1 mph N/A   Overcast
5:54 AM 10.9 °F -5.4 °F 5.0 °F 77% 29.76 in 10.0 mi NW 15.0 mph 29.9 mph N/A   Overcast
6:15 AM 10.4 °F -6.0 °F 4.8 °F 78% 29.79 in 10.0 mi NW 15.0 mph 28.8 mph N/A   Overcast
6:34 AM 10.8 °F -7.7 °F 5.5 °F 79% 29.80 in 10.0 mi NW 19.6 mph 26.5 mph N/A   Overcast
6:55 AM 10.4 °F -5.4 °F 4.8 °F 78% 29.82 in 10.0 mi NW 13.8 mph 24.2 mph N/A   Overcast
7:15 AM 10.4 °F -6.0 °F 5.0 °F 79% 29.83 in 7.0 mi NW 15.0 mph 23.0 mph N/A   Overcast
7:34 AM 10.8 °F -1.1 °F 5.5 °F 79% 29.85 in 10.0 mi NW 8.1 mph 23.0 mph N/A   Overcast
7:55 AM 10.6 °F -5.2 °F 6.4 °F 83% 29.86 in 1.0 mi NW 13.8 mph 21.9 mph N/A Snow Light Snow
8:15 AM 10.0 °F -7.6 °F 3.7 °F 76% 29.88 in 10.0 mi NNW 17.3 mph 23.0 mph N/A   Overcast
8:34 AM 9.9 °F -6.7 °F 3.2 °F 74% 29.91 in 10.0 mi WNW 15.0 mph 24.2 mph N/A   Mostly Cloudy
8:55 AM 9.7 °F -7.5 °F 3.9 °F 77% 29.93 in 7.0 mi WNW 16.1 mph 23.0 mph N/A   Scattered Clouds
9:34 AM 10.6 °F -5.8 °F 3.9 °F 75% 29.97 in 7.0 mi WNW 15.0 mph 20.7 mph N/A   Mostly Cloudy
9:55 AM 10.2 °F -4.3 °F 4.6 °F 78% 29.98 in 3.0 mi WNW 11.5 mph 17.3 mph N/A Snow Light Snow
10:15 AM 11.3 °F -3.6 °F 4.1 °F 73% 30.00 in 10.0 mi WNW 12.7 mph 23.0 mph N/A   Mostly Cloudy
10:34 AM 11.7 °F -3.2 °F 3.9 °F 71% 30.00 in 10.0 mi WNW 12.7 mph 23.0 mph N/A   Mostly Cloudy
10:55 AM 11.3 °F -5.5 °F 3.2 °F 70% 30.01 in 10.0 mi WNW 16.1 mph 26.5 mph N/A   Mostly Cloudy
11:14 AM 12.4 °F -4.1 °F 3.2 °F 67% 30.01 in 10.0 mi WNW 16.1 mph 24.2 mph N/A   Mostly Cloudy
11:34 AM 11.8 °F -3.6 °F 2.7 °F 67% 30.02 in 10.0 mi WNW 13.8 mph 25.3 mph N/A   Overcast
11:55 AM 12.0 °F -4.0 °F 2.3 °F 65% 30.01 in 10.0 mi WNW 15.0 mph 24.2 mph N/A   Overcast
12:14 PM 13.1 °F -3.1 °F 2.1 °F 62% 30.01 in 10.0 mi WNW 16.1 mph 24.2 mph N/A   Mostly Cloudy
12:34 PM 14.4 °F -1.5 °F 3.4 °F 62% 30.00 in 10.0 mi WNW 16.1 mph 24.2 mph N/A   Mostly Cloudy
12:55 PM 14.0 °F -1.4 °F 3.7 °F 64% 30.00 in 10.0 mi WNW 15.0 mph 21.9 mph N/A   Overcast
1:14 PM 14.0 °F -0.2 °F 4.6 °F 66% 30.00 in 10.0 mi NW 12.7 mph 18.4 mph N/A   Overcast
1:34 PM 13.1 °F 0.9 °F 4.5 °F 68% 30.00 in 5.0 mi WNW 9.2 mph 19.6 mph N/A   Haze
1:55 PM 13.6 °F 0.7 °F 4.8 °F 68% 30.00 in 10.0 mi WNW 10.4 mph 19.6 mph N/A   Mostly Cloudy
2:14 PM 12.7 °F -3.6 °F 4.5 °F 70% 30.01 in 10.0 mi West 16.1 mph 20.7 mph N/A   Mostly Cloudy
2:34 PM 13.3 °F -2.9 °F 6.8 °F 75% 30.01 in 1.0 mi WNW 16.1 mph 25.3 mph N/A Snow Light Snow
2:55 PM 12.6 °F -5.3 °F 5.4 °F 73% 30.02 in 2.5 mi WNW 19.6 mph 27.6 mph N/A   Haze
3:14 PM 13.6 °F -1.9 °F 3.7 °F 65% 30.02 in 10.0 mi WNW 15.0 mph 26.5 mph N/A   Mostly Cloudy
3:35 PM 13.1 °F -4.2 °F 2.1 °F 62% 30.02 in 10.0 mi WNW 18.4 mph 27.6 mph N/A   Overcast
4:14 PM 12.2 °F -1.8 °F 1.6 °F 63% 30.04 in 10.0 mi WNW 11.5 mph 23.0 mph N/A   Scattered Clouds
4:35 PM 11.8 °F -4.2 °F 0.7 °F 61% 30.05 in 10.0 mi WNW 15.0 mph 20.7 mph N/A   Scattered Clouds
4:54 PM 11.5 °F -5.8 °F 0.3 °F 61% 30.05 in 10.0 mi WNW 17.3 mph 23.0 mph N/A   Scattered Clouds
5:14 PM 11.1 °F -4.5 °F 0.3 °F 62% 30.06 in 10.0 mi WNW 13.8 mph 23.0 mph N/A   Scattered Clouds
5:35 PM 11.3 °F -4.9 °F 0.7 °F 62% 30.06 in 10.0 mi WNW 15.0 mph 25.3 mph N/A   Mostly Cloudy
5:54 PM 10.8 °F -5.0 °F 0.3 °F 63% 30.06 in 10.0 mi NW 13.8 mph 19.6 mph N/A   Mostly Cloudy
6:15 PM 10.2 °F -4.3 °F 0.5 °F 65% 30.07 in 10.0 mi WNW 11.5 mph 23.0 mph N/A   Clear
6:35 PM 10.4 °F -6.0 °F 0.7 °F 65% 30.07 in 10.0 mi West 15.0 mph 21.9 mph N/A   Clear
6:54 PM 10.0 °F -5.2 °F 1.0 °F 67% 30.07 in 10.0 mi WNW 12.7 mph 19.6 mph N/A   Scattered Clouds
7:15 PM 10.0 °F -5.2 °F 1.4 °F 68% 30.07 in 10.0 mi WNW 12.7 mph 20.7 mph N/A   Mostly Cloudy
7:54 PM 10.2 °F -5.0 °F 2.3 °F 70% 30.08 in 10.0 mi WNW 12.7 mph 19.6 mph N/A   Mostly Cloudy
8:15 PM 10.4 °F -6.0 °F 2.7 °F 71% 30.07 in 10.0 mi West 15.0 mph 24.2 mph N/A   Overcast
8:35 PM 10.4 °F -6.0 °F 2.3 °F 70% 30.06 in 10.0 mi West 15.0 mph 21.9 mph N/A   Overcast
8:54 PM 10.4 °F -7.2 °F 2.1 °F 69% 30.06 in 10.0 mi WNW 17.3 mph 21.9 mph N/A   Overcast
9:15 PM 10.2 °F -6.3 °F 1.8 °F 69% 30.05 in 10.0 mi West 15.0 mph 23.0 mph N/A   Overcast
9:35 PM 10.2 °F -5.7 °F 1.8 °F 69% 30.05 in 10.0 mi West 13.8 mph 20.7 mph N/A   Overcast
9:54 PM 10.2 °F -6.3 °F 1.2 °F 67% 30.05 in 10.0 mi West 15.0 mph 23.0 mph N/A   Overcast
10:15 PM 10.2 °F -4.3 °F 1.8 °F 69% 30.05 in 10.0 mi WNW 11.5 mph 20.7 mph N/A   Overcast
10:35 PM 9.9 °F -4.0 °F 0.7 °F 66% 30.04 in 10.0 mi WNW 10.4 mph 23.0 mph N/A   Scattered Clouds
10:54 PM 9.1 °F -4.9 °F 1.4 °F 71% 30.04 in 10.0 mi WNW 10.4 mph 16.1 mph N/A   Mostly Cloudy
11:15 PM 8.6 °F -5.5 °F 1.8 °F 74% 30.03 in 10.0 mi WNW 10.4 mph - N/A   Scattered Clouds
11:35 PM 8.1 °F -6.2 °F 0.1 °F 70% 30.03 in 10.0 mi WNW 10.4 mph 17.3 mph N/A   Clear
11:54 PM 8.1 °F -7.0 °F 0.3 °F 71% 30.02 in 10.0 mi WNW 11.5 mph - N/A   Clear